Content
SEND FEEDBACK

Daily
Averages
Monthly
Summary
Canada

VANCOUVER, BRITISH COLUMBIA


Home > North America > Canada > British Columbia
Elevation: 2 meters     Latitude: 49 11N     Longitude: 123 10W

WEATHER
 
SELECT A DAY
Number of Records: 249,704;   Date Range: 5/15/97 - 8/31/14
 
SHARE

PRINT THIS DATA

[ ← Previous Day ]
WEATHER ALMANAC - 19 MARCH, 2013
[ Next Day → ]
[ °F ]   °C
Weather ElementAverageHighLow
Temperature5.7 °C11 °C (4:35 pm)1 °C (12:55 am)
Dewpoint0.6 °C4 °C (5:35 pm)-3 °C (3:35 pm)
Humidity71.2 %93 % (12:55 am)40 % (3:35 pm)
Barometer1013.9 hPa1023.4 hPa (12:35 am)999.7 hPa (11:55 pm)
Wind Speed7.1 km/h18.5 km/h (11:15 pm)
Wind Gust44.4 km/h (10:55 pm)
Weather ElementAverage
Visibility15.4 km
Wind DirectionENE (72 °)

Weather ElementTotal
Precipitation---
Heating Degree Days12.3 (Base 18.3)
Averaged from 70 records on 19 March, 2013
WEATHER CONDITIONS BREAKOUT
WIND DIRECTION BREAKOUT
WEATHER BY HOUR - 19 MARCH, 2013
[ °F ]   °C
Local TimeTemperatureDewpointHumidityBarometerVisibilityWind DirectionWind SpeedGust SpeedPrecipitationEventsConditions
12:35 AM2 °C0 °C87 %1023.4 hPa16.1 kmCalmClear
12:55 AM1 °C0 °C93 %1023 hPa16.1 kmCalmClear
1:15 AM1 °C0 °C93 %1023 hPa16.1 kmCalmClear
1:35 AM1 °C0 °C93 %1022.7 hPa16.1 kmCalmClear
1:55 AM1 °C0 °C93 %1022.7 hPa16.1 kmCalmClear
2:15 AM2 °C1 °C93 %1022.7 hPa16.1 kmNorthClear
2:35 AM3 °C1 °C87 %1022.4 hPa16.1 kmESE (110°)7.4 km/hClear
2:55 AM3 °C1 °C87 %1022.4 hPa16.1 kmCalmClear
3:15 AM2 °C1 °C93 %1022.4 hPa16.1 kmCalmClear
3:35 AM2 °C0 °C87 %1022.4 hPa16.1 kmCalmClear
3:55 AM2 °C0 °C87 %1022.4 hPa16.1 kmCalmClear
4:15 AM1 °C0 °C93 %1022 hPa16.1 kmCalmClear
4:35 AM4 °C1 °C81 %1021.7 hPa16.1 kmCalmClear
4:55 AM4 °C0 °C75 %1021.3 hPa16.1 kmENE (70°)5.6 km/hClear
5:15 AM4 °C0 °C75 %1021 hPa16.1 kmENE (70°)9.3 km/hClear
5:35 AM3 °C0 °C81 %1021 hPa16.1 kmNE (50°)5.6 km/hClear
5:55 AM3 °C0 °C81 %1020.7 hPa16.1 kmCalmClear
6:15 AM3 °C0 °C81 %1020.3 hPa16.1 kmENE (60°)9.3 km/hClear
6:35 AM3 °C0 °C81 %1020 hPa16.1 kmNE (50°)14.8 km/h25.9 km/hClear
6:55 AM3 °C-1 °C75 %1019.6 hPa16.1 kmNNE (30°)13 km/hClear
7:15 AM3 °C-1 °C75 %1019.6 hPa16.1 kmNE (50°)14.8 km/hClear
7:35 AM3 °C-1 °C75 %1019.3 hPa16.1 kmEast (80°)9.3 km/hClear
7:55 AM3 °C-1 °C75 %1019 hPa16.1 kmNE (50°)5.6 km/hClear
8:15 AM3 °C-2 °C70 %1019 hPa16.1 kmNE (50°)13 km/hClear
8:35 AM3 °C-2 °C70 %1019 hPa16.1 kmENE (60°)9.3 km/hClear
8:55 AM3 °C-2 °C70 %1018.6 hPa16.1 kmNE (50°)9.3 km/hClear
9:15 AM4 °C-2 °C65 %1018.3 hPa16.1 kmNE (40°)13 km/hClear
9:35 AM4 °C-2 °C65 %1018.3 hPa16.1 kmENE (60°)5.6 km/hClear
9:55 AM4 °C-2 °C65 %1017.9 hPa16.1 kmNE (50°)9.3 km/hClear
10:15 AM4 °C-2 °C65 %1017.6 hPa16.1 kmNNE (30°)5.6 km/hClear
10:35 AM5 °C-2 °C61 %1017.6 hPa16.1 kmNE (50°)7.4 km/hClear
10:55 AM5 °C-2 °C61 %1017.3 hPa16.1 kmENE (60°)5.6 km/hClear
11:15 AM5 °C-2 °C61 %1016.9 hPa16.1 kmEast (80°)7.4 km/hClear
11:35 AM5 °C-2 °C61 %1016.6 hPa16.1 kmCalmClear
11:55 AM5 °C-2 °C61 %1016.3 hPa16.1 kmCalmClear
12:15 PM5 °C0 °C70 %1015.9 hPa16.1 kmSE (130°)7.4 km/hClear
12:35 PM6 °C0 °C66 %1015.2 hPa16.1 kmEast (80°)7.4 km/hClear
12:55 PM7 °C-1 °C57 %1014.9 hPa16.1 kmNE (40°)9.3 km/hClear
1:15 PM7 °C-1 °C57 %1014.2 hPa16.1 kmNE (50°)7.4 km/hScattered Clouds
1:35 PM7 °C-1 °C57 %1013.9 hPa16.1 kmNE (50°)9.3 km/hMostly Cloudy
2:15 PM7 °C0 °C61 %1012.5 hPa16.1 kmNE (40°)11.1 km/hClear
2:35 PM8 °C0 °C57 %1012.2 hPa16.1 kmCalmClear
2:55 PM8 °C-2 °C50 %1011.5 hPa16.1 kmNorth (350°)5.6 km/hClear
3:15 PM9 °C-2 °C46 %1010.8 hPa16.1 kmCalmClear
3:35 PM10 °C-3 °C40 %1010.5 hPa16.1 kmSE (130°)13 km/hClear
3:55 PM10 °C-3 °C40 %1010.2 hPa16.1 kmESE (120°)9.3 km/h27.8 km/hClear
4:15 PM10 °C-1 °C47 %1009.8 hPa16.1 kmEast (80°)9.3 km/hClear
4:35 PM11 °C-2 °C41 %1009.8 hPa16.1 kmEast (100°)7.4 km/hClear
4:55 PM10 °C0 °C50 %1009.8 hPa11.3 kmSE (140°)14.8 km/hScattered Clouds
5:15 PM9 °C2 °C62 %1009.5 hPa8 kmESE (110°)11.1 km/hRainLight Rain
5:35 PM8 °C4 °C76 %1009.5 hPa8 kmESE (110°)5.6 km/h27.8 km/hRainLight Rain
5:55 PM8 °C4 °C76 %1008.8 hPa11.3 kmESE (120°)9.3 km/hRainLight Rain
6:15 PM8 °C4 °C76 %1008.1 hPa16.1 kmSE (130°)9.3 km/hScattered Clouds
6:35 PM8 °C4 °C76 %1007.8 hPa16.1 kmSSE (160°)5.6 km/hRainLight Rain
6:55 PM8 °C4 °C76 %1007.5 hPa16.1 kmSSE (150°)11.1 km/hClear
7:15 PM8 °C4 °C76 %1006.8 hPa16.1 kmSSE (160°)7.4 km/h27.8 km/hClear
7:35 PM8 °C4 °C76 %1006.8 hPa16.1 kmCalmPartly Cloudy
7:55 PM8 °C4 °C76 %1006.4 hPa8 kmEast (100°)9.3 km/hRainLight Rain
8:15 PM7 °C4 °C81 %1005.4 hPa8 kmSE (140°)11.1 km/hRainLight Rain
8:35 PM7 °C4 °C81 %1004.7 hPa16.1 kmSSE (150°)7.4 km/hPartly Cloudy
8:55 PM8 °C3 °C71 %1004.7 hPa16.1 kmEast (100°)5.6 km/hMostly Cloudy
9:15 PM8 °C3 °C71 %1004.1 hPa16.1 kmEast (100°)9.3 km/hRainLight Rain
9:35 PM8 °C3 °C71 %1003.4 hPa16.1 kmCalmMostly Cloudy
9:55 PM8 °C3 °C71 %1003 hPa16.1 kmSE (130°)7.4 km/hMostly Cloudy
10:15 PM9 °C3 °C66 %1002.4 hPa16.1 kmSE (140°)14.8 km/h35.2 km/hMostly Cloudy
10:35 PM9 °C3 °C66 %1001.4 hPa16.1 kmSSE (160°)14.8 km/h38.9 km/hScattered Clouds
10:55 PM9 °C4 °C71 %1001 hPa16.1 kmSSE (160°)14.8 km/h44.4 km/hRainLight Rain
11:15 PM9 °C4 °C71 %1000.3 hPa16.1 kmSSE (160°)18.5 km/h38.9 km/hRainLight Rain
11:35 PM9 °C4 °C71 %1000 hPa16.1 kmSE (140°)14.8 km/h38.9 km/hScattered Clouds
11:55 PM9 °C4 °C71 %999.7 hPa16.1 kmSSE (160°)13 km/h33.3 km/hRainLight Rain
Hourly data recorded from CZBB, located 0 kilometers away from Vancouver, British Columbia







STORIES FROM OUR PARTNERS